Regional Weather Roundup
Issued by NWS

Home | Current Version | Previous Version | Graphics & Text | Print | Product List | Glossary On
Versions: 1 2 3 4 5 6 7 8 9 10 11 12 13 14 15 16 17 18 19 20 21 22 23 24 25 26 27
000
ASUS45 KBOU 060807
RWRCO

WEATHER ROUNDUP FOR COLORADO
NATIONAL WEATHER SERVICE DENVER/BOULDER CO
200 AM MDT FRI MAY 06 2016

NOTE: "FAIR" INDICATES FEW OR NO CLOUDS BELOW 12000 FEET WITH NO
SIGNIFICANT WEATHER AND/OR OBSTRUCTIONS TO VISIBILITY.

COZ001>005-013-030-031-060900-
...NORTHWEST COLORADO...

CITY           SKY/WX    TMP DP  RH WIND       PRES   REMARKS
CRAIG          FAIR      43  34  70 SW15      29.99S
HAYDEN         FAIR      52  28  40 E10       30.01S
MEEKER         FAIR      47  33  58 CALM      30.01S
MOUNT WERNER   NOT AVBL
STEAMBOAT SPGS FAIR      47  32  54 CALM      30.04S
WALDEN         FAIR      41  30  65 CALM      30.16S
$$

COZ006>008-011-060900-
...WEST CENTRAL VALLEYS...

CITY           SKY/WX    TMP DP  RH WIND       PRES   REMARKS
GRAND JUNCTION FAIR      61  38  42 SE3       29.89F
MONTROSE       MOCLDY    61  32  33 SE10      29.98S
EAGLE          FAIR      50  28  43 CALM      30.06S
RIFLE          FAIR      52  34  50 N3        29.96R
DELTA          NOT AVBL
NUCLA          NOT AVBL
$$

COZ017>023-064>068-060900-
...SOUTHWEST COLORADO...

CITY           SKY/WX    TMP DP  RH WIND       PRES   REMARKS
DURANGO        CLOUDY    60  28  29 SE13      30.03F
CORTEZ         MOCLDY    69  31  24 SE15G29   29.93F
PAGOSA SPRINGS MOCLDY    48  30  49 CALM      30.14S
TELLURIDE      MOCLDY    51  32  46 E9G26     30.19F
WOLF CREEK PAS FAIR      37  21  52 S21G29    30.38F
$$

COZ009-010-012-014-032>034-037-058>063-060900-
...CENTRAL COLORADO...

CITY           SKY/WX    TMP DP  RH WIND       PRES   REMARKS
ASPEN          FAIR      45  29  53 S7        30.09F
BUENA VISTA    FAIR      41  32  70 NW5       30.17F
COPPER MTN     NOT AVBL
BERTHOUD PASS  FAIR      34  27  75 SE18G25   30.41F WCI  23
COTTONWOOD PAS FAIR      50  21  32 CALM      30.27F
GUNNISON       FAIR      43  28  56 NE7       30.15S
KREMMLING      FAIR      43  30  61 CALM      30.12S
LEADVILLE      FAIR      38  23  55 NE3       30.25F
MONARCH PASS   FAIR      41  21  45 S9        30.48S
SALIDA         FAIR      46  31  55 W9        30.22F
SUNLIGHT       FAIR      45  25  45 CALM      30.30S
WILKERSON PASS FAIR      41  23  48 SW8       30.37S
$$

COZ069>075-060900-
...SAN LUIS VALLEY/SANGRE DE CRISTO MOUNTAINS...

CITY           SKY/WX    TMP DP  RH WIND       PRES   REMARKS
ALAMOSA        FAIR      46  32  58 SE5       30.14F
LA VETA PASS   FAIR      45  21  39 S14G22    30.29F
SAGUACHE       FAIR      41  32  70 NW7       30.16S
$$

COZ035-036-038>040-060900-
...NORTHERN COLORADO FRONT RANGE...

CITY           SKY/WX    TMP DP  RH WIND       PRES   REMARKS
DENVER INTL AP FAIR      58  38  47 SW12      30.00F
DMNS CITY PARK   N/A     60  38  45 S3G13     29.99F
AURORA         FAIR      54  40  60 S6        30.02F
FRONT RANGE AP NOT AVBL
ERIE MUNI ARPT FAIR      52  40  63 CALM      29.98F
BOULDER MUN AP FAIR      55  37  50 CALM      29.98F
CENTENNIAL     FAIR      55  39  54 SE8       30.02F
BROOMFIELD     FAIR      57  36  44 SW3       30.01F
FORT COLLINS   FAIR      52  39  62 N5        30.00F
LONGMONT       FAIR      50  41  71 W6        30.00F
$$

COZ041-046-047-076>085-087-088-060900-
...PIKES PEAK/PALMER DIVIDE AND SOUTHERN FOOTHILLS...

CITY           SKY/WX    TMP DP  RH WIND       PRES   REMARKS
COLO. SPRINGS  FAIR      48  38  68 NE13      30.07F
A. F. ACADEMY  FAIR      46  37  71 N5        30.07F
SCHRIEVER AFB  NOT AVBL
ELLICOTT       FAIR     N/A N/A N/A E14       30.04F
FALCON         NOT AVBL
FORT CARSON    FAIR      49  40  70 N8        30.03F
LIMON          FAIR      46  42  86 SE6       30.05F
MONUMENT HILL  FAIR      45  37  76 S9        30.10F
TRINIDAD       FAIR      64  23  21 W15G29    30.03F
$$

COZ042>045-048>051-090-091-060900-
...NORTHEAST COLORADO...

CITY           SKY/WX    TMP DP  RH WIND       PRES   REMARKS
GREELEY ARPT   FAIR      54  43  66 SE9       29.99F
AKRON          FAIR      56  43  61 S14       30.01F
BURLINGTON     FAIR      57  45  64 SE18      30.03F
WRAY           NOT AVBL
STERLING       FAIR      61  45  55 S12       29.97F
HOLYOKE        NOT AVBL
FORT MORGAN    FAIR      55  42  63 CALM      30.00F
$$

COZ086-089-092>099-060900-
...SOUTHEAST COLORADO...

CITY           SKY/WX    TMP DP  RH WIND       PRES   REMARKS
PUEBLO         FAIR      55  42  61 N8        29.97F
LA JUNTA       FAIR      53  45  74 E8        29.96F
LAMAR          FAIR      53  46  77 NE9       29.96F
SPRINGFIELD      N/A     52  43  71 S13       30.02F
$$




USA.gov is the U.S. government's official web portal to all federal, state and local government web resources and services.